Weather in Paniutyne

Ukraine / Kharkiv Region     48°56′26″N   36°16′29″E
В апреле 2022 года жителям России запретили посещать сайт meteo.paraplan.net по решению Генеральной прокуратуры. Аудитория сайта уменьшилась в 10 раз. Владельцы сайта не видят смысла в поддержке погодного сервера в таких условиях. Сайт будет закрыт в октябре.
temp.,
°C
wind,
m/s
gust,
m/s
humid.,
%
clouds,
%
prec.,
mm/h
press.,
hPa
HPBL,
m
30 september, fri
fri3000:00+16sse3355100 0.0 101427
03:00+16s4858100 0.0 1015187
06:00+15sse4108195 0.0 1015214
09:00+18s6106779 0.0 1016400
12:00+20s4761100 0.1 1016638
15:00+23s485475 0.8 1016911
18:00+21sw2258100 0.1 101521
21:00+17s3583100 2.7 101789
1 october, sat
sat100:00+17s4118818 1.4 1017292
03:00+16s499198 1.5 1017181
06:00+15ssw489385 0.0 1018143
09:00+19sw477520 0.0 1018289
12:00+24sw5751100 0.0 1017984
15:00+25sw7943100 0.0 10161535
18:00+22wsw3454100 0.0 101648
21:00+19wsw1164100 0.1 101511
2 october, sun
sun200:00+18ese2270100 0.1 101413
03:00+17s357799 0.1 101395
06:00+17s41080100 0.1 1011193
09:00+20s61170100 0.1 1010457
12:00+20wsw4766100 0.0 1009767
15:00+18sw1284100 1.5 100686
18:00+17s51182100 5.0 1003732
21:00+16s91690100 10.3 10001083
3 october, mon
mon300:00+15w4893100 4.8 1000514
03:00+12wnw71186100 4.8 1001612
06:00+11wnw6982100 0.0 1003781
09:00+10w5988100 0.4 1005555
12:00+13w676689 0.2 10071092
15:00+14w6762100 0.3 10081283
18:00+11w4783100 0.3 1011559
21:00+10w368950 0.5 1013189
4 october, tue
tue400:00+9sw369122 0.0 1014167
03:00+8wsw34925 0.0 101578
06:00+8sw35945 0.0 1016100
09:00+11sw46805 0.0 1017422
12:00+15sw565499 0.0 10171584
15:00+14sw5647100 0.0 10171824
18:00+13sw3657100 0.0 1018188
21:00+12sw3767100 0.0 1019445